[[{"header":{"parameterUnit":"m.s-1","parameterCategory":1,"la1":30.2991,"la2":30.254,"lo1":-89.0895,"lo2":-89.0444,"dy":0.0017,"dx":0.0017,"nx":28,"ny":28,"refTime":"2026-01-30T09:00:00:Z","depth":0,"parameterNumber":2,"parameterNumberName":"U-component_of_WINDS"},"data":[0,0,0,0,0,0,0,0,0,0,0,0,0,0,0,0,0,0,0,0,0,0,0,0,0,0,0,0,0,0,0,0,0,0,0,0,0,0,0,0,0,0,0,0,0,0,0,0,0,0,0,0,0,0,0,0,0,0,-2.9018,-2.9018,0,-2.9108,-2.9109,-2.911,-2.9105,-2.9104,-2.9102,-2.9101,-2.9193,-2.9196,-2.92,0,0,0,0,0,0,0,0,0,0,0,0,0,-2.884,-2.8843,-2.9017,-2.9019,-2.902,-2.9108,-2.9109,-2.911,-2.9105,-2.9104,-2.9102,-2.9101,-2.9192,-2.9196,-2.92,0,0,0,0,0,0,0,0,0,0,0,0,0,-2.8922,-2.8844,-2.9017,-2.9028,-2.903,-2.9107,-2.9109,-2.911,-2.9106,-2.9104,-2.9102,-2.91,-2.919,-2.9196,-2.9201,-2.9274,0,0,-2.9218,-2.922,0,0,0,0,0,0,0,0,-2.8917,-2.8928,-2.9025,-2.9027,-2.903,-2.9093,-2.908,-2.9165,-2.9106,-2.9077,-2.9101,-2.9099,-2.9161,-2.9169,-2.919,-2.9278,-2.9282,-2.9218,-2.9221,-2.9224,-2.9225,0,0,0,0,0,0,0,-2.8912,-2.8925,-2.9053,-2.9027,-2.9029,-2.9028,-2.9037,-2.9096,-2.9129,-2.9079,-2.9079,-2.909,-2.9162,-2.9185,-2.9192,-2.9283,-2.9218,-2.9223,-2.9226,-2.9228,-2.9432,-2.9434,0,0,0,0,0,0,-2.8904,-2.892,-2.905,-2.9056,-2.8967,-2.9032,-2.9043,-2.9075,-2.9128,-2.9134,-2.9091,-2.9089,-2.9176,-2.9186,-2.9195,-2.9282,-2.9224,-2.9229,-2.9232,-2.943,-2.9433,-2.9435,0,0,0,0,0,0,-2.89,-2.8915,-2.9047,-2.8988,-2.9004,-2.9038,-2.9073,-2.9077,-2.91,-2.9137,-2.9143,-2.9109,-2.9175,-2.9188,-2.9254,-2.9285,-2.9231,-2.9236,-2.9428,-2.9431,-2.9434,-2.9456,0,0,0,0,0,0,-2.8895,-2.8914,-2.8942,-2.8989,-2.9008,-2.9104,-2.9075,-2.9081,-2.911,-2.9108,-2.9155,-2.9161,-2.9175,-2.9245,-2.9259,-2.9291,-2.9241,-2.9425,-2.9429,-2.9433,-2.9453,-2.946,-2.9466,0,0,0,0,0,-2.8888,-2.8945,-2.8944,-2.896,-2.9044,-2.9106,-2.9116,-2.9131,-2.9112,-2.914,-2.9164,-2.916,-2.928,-2.9252,-2.9268,-2.9302,-2.9423,-2.9428,-2.9433,-2.945,-2.9458,-2.9465,0,0,0,0,0,0,-2.8902,-2.8952,-2.895,-2.9024,-2.9061,-2.9105,-2.9141,-2.914,-2.9183,-2.9179,-2.9195,-2.9206,-2.9272,-2.9294,-2.9262,-2.9374,-2.9349,-2.9357,-2.9357,-2.9365,-2.9371,-2.9363,-2.9245,0,0,0,0,0,-2.8914,-2.896,-2.9001,-2.9062,-2.908,-2.9108,-2.9135,-2.9143,-2.9182,-2.9197,-2.9226,-2.9263,-2.9308,-2.9338,-2.9383,-2.9457,-2.9465,-2.9488,-2.9494,-2.9499,-2.9505,-2.9543,-2.9553,-2.9451,-2.9451,-2.9451,0,0,-2.8938,-2.8971,-2.8999,-2.9066,-2.9095,-2.9141,-2.9121,-2.9172,-2.9206,-2.9205,-2.9268,-2.929,-2.9333,-2.9402,-2.9434,-2.9422,-2.9536,-2.9505,-2.9509,-2.9512,-2.9549,-2.9559,-2.9567,-2.9454,-2.9454,-2.9453,0,0,-2.9006,-2.9037,-2.9089,-2.9119,-2.9163,-2.9181,-2.9193,-2.9238,-2.9252,-2.9316,-2.9315,-2.9357,-2.9436,-2.9466,-2.9491,-2.9569,-2.9565,-2.9583,-2.9616,-2.9653,-2.9661,-2.9668,-2.9693,-2.9702,-2.959,-2.959,-2.959,0,-2.903,-2.9101,-2.9117,-2.9167,-2.9195,-2.9197,-2.9249,-2.9278,-2.9334,-2.9353,-2.934,-2.9438,-2.9467,-2.9542,-2.9561,-2.9583,-2.9596,-2.9577,-2.9659,-2.9666,-2.9673,-2.9697,-2.9707,-2.9591,-2.9591,-2.9591,-2.9591,0,-2.9128,-2.9177,-2.9214,-2.9268,-2.9301,-2.9352,-2.9375,-2.9406,-2.9411,-2.943,-2.9494,-2.9529,-2.9579,-2.9598,-2.9604,-2.9674,-2.9665,-2.9655,-2.963,-2.9684,-2.9707,-2.9716,-2.9594,-2.9593,-2.9593,-2.9592,0,0,-2.9206,-2.9267,-2.928,-2.9303,-2.9352,-2.939,-2.9441,-2.949,-2.9516,-2.9555,-2.9597,-2.9664,-2.9654,-2.9683,-2.9693,-2.9726,-2.9782,-2.9712,-2.9713,-2.9721,-2.9857,-2.9862,-2.9873,-2.9781,-2.9783,-2.9784,-2.9853,0,-2.9276,-2.9366,-2.9381,-2.946,-2.9504,-2.9506,-2.955,-2.9584,-2.9603,-2.9643,-2.9664,-2.971,-2.9695,-2.9712,-2.9745,-2.9768,-2.9809,-2.9764,-2.9818,-2.982,-2.9804,-2.9885,-2.9891,-2.9954,-2.9862,-2.9864,-2.9865,0,-2.937,-2.9411,-2.9494,-2.9534,-2.9553,-2.9593,-2.9638,-2.9677,-2.9715,-2.9726,-2.9758,-2.9764,-2.9816,-2.979,-2.9861,-2.9829,-2.9853,-2.9867,-2.987,-2.9874,-2.9844,-2.9888,-2.9975,-2.9983,-2.988,-2.9878,-2.9877,0,-2.9415,-2.9491,-2.9549,-2.957,-2.962,-2.9647,-2.9669,-2.9706,-2.9734,-2.9774,-2.9791,-2.9837,-2.9861,-2.9896,-2.9913,-2.9893,-2.9982,-2.9958,-2.9991,-2.9991,-3.0008,-3.0006,-3.0097,-3.0027,-3.0027,-3.0027,-3.0027,0,-2.9491,-2.9541,-2.957,-2.9606,-2.9661,-2.9678,-2.9732,-2.9754,-2.9786,-2.9825,-2.9831,-2.9867,-2.9889,-2.9929,-2.9943,-2.9998,-3.0009,-3.0019,-3.0021,-3.0017,-3.0015,-3.003,-3.0025,-3.003,-3.0029,-3.0029,-3.0028,0,-2.9549,-2.9571,-2.9635,-2.9676,-2.9688,-2.9727,-2.9762,-2.9797,-2.9815,-2.9865,-2.9878,-2.9907,-2.9954,-2.9975,-3.0033,-3.0042,-3.0104,-3.0105,-3.0091,-3.0091,-3.0121,-3.0117,-3.0223,-3.0237,-3.0161,-3.0162,-3.0162,0,-2.9595,-2.9633,-2.9678,-2.9705,-2.9727,-2.977,-2.9799,-2.9817,-2.9846,-2.9892,-2.992,-2.9967,-3.0005,-3.008,-3.0106,-3.015,-3.015,-3.0184,-3.0157,-3.015,-3.0147,-3.0144,-3.0146,-3.0188,-3.0189,-3.019,-3.019,0,-2.9672,-2.9681,-2.9721,-2.9765,-2.9798,-2.9834,-2.9869,-2.989,-2.9914,-2.9946,-2.9994,-3.0023,-3.0082,-3.0128,-3.0173,-3.0195,-3.0196,-3.0199,-3.0208,-3.0203,-3.0192,-3.0195,-3.0101,-3.0196,-3.0195,-3.0195,-3.0195,-3.0194,-2.9724,-2.9757,-2.9793,-2.9838,-2.9866,-2.9898,-2.9931,-2.9954,-2.9994,-3.0042,-3.0051,-3.0101,-3.0137,-3.0198,-3.0222,-3.0261,-3.0253,-3.0267,-3.027,-3.0273,-3.0273,-3.0188,-3.027,-3.027,-3.027,-3.027,-3.0269,0,-2.9799,-2.9822,-2.9863,-2.9911,-2.9945,-2.9944,-2.9982,-3.0011,-3.0054,-3.0088,-3.0125,-3.0179,-3.0223,-3.0253,-3.0297,-3.0323,-3.0324,-3.0334,-3.033,-3.0335,-3.028,-3.0266,-3.0332,-3.0332,-3.0332,-3.0331,-3.0331,-3.0331,-2.9842,-2.9897,-2.9909,-2.9978,-3.0001,-3.005,-3.0071,-3.01,-3.0127,-3.0187,-3.0223,-3.0242,-3.0274,-3.032,-3.036,-3.0368,-3.0383,-3.0392,-3.0399,-3.0346,-3.0339,-3.0333,-3.032,-3.0396,-3.0396,-3.0451,-3.0451,-3.0452]},{"header":{"parameterUnit":"m.s-1","parameterCategory":1,"la1":30.2991,"la2":30.254,"lo1":-89.0895,"lo2":-89.0444,"dy":0.0017,"dx":0.0017,"nx":28,"ny":28,"refTime":"2026-01-30T09:00:00:Z","depth":0,"parameterNumber":3,"parameterNumberName":"V-component_of_WINDS"},"data":[0,0,0,0,0,0,0,0,0,0,0,0,0,0,0,0,0,0,0,0,0,0,0,0,0,0,0,0,0,0,0,0,0,0,0,0,0,0,0,0,0,0,0,0,0,0,0,0,0,0,0,0,0,0,0,0,0,0,1.3286,1.3286,0,1.3319,1.3319,1.332,1.3281,1.328,1.3278,1.3277,1.3311,1.3313,1.3315,0,0,0,0,0,0,0,0,0,0,0,0,0,1.319,1.3192,1.3286,1.3286,1.3287,1.3319,1.3319,1.332,1.3282,1.328,1.3278,1.3276,1.331,1.3312,1.3315,0,0,0,0,0,0,0,0,0,0,0,0,0,1.3228,1.3193,1.3286,1.3272,1.3271,1.3319,1.3319,1.332,1.3282,1.328,1.3278,1.3276,1.3309,1.3312,1.3315,1.3379,0,0,1.3326,1.3327,0,0,0,0,0,0,0,0,1.3226,1.3232,1.3273,1.3273,1.3272,1.3294,1.3298,1.334,1.3282,1.3278,1.3277,1.3275,1.3307,1.331,1.3321,1.3381,1.3382,1.3326,1.3328,1.3329,1.333,0,0,0,0,0,0,0,1.3224,1.323,1.3299,1.3274,1.3273,1.3264,1.3267,1.3305,1.3304,1.3278,1.3275,1.328,1.3306,1.3318,1.3321,1.3382,1.3326,1.3329,1.3331,1.3332,1.3496,1.3499,0,0,0,0,0,0,1.3223,1.3228,1.3298,1.33,1.3243,1.3267,1.327,1.3289,1.3303,1.3303,1.3281,1.3278,1.3313,1.3318,1.3322,1.3398,1.3329,1.3332,1.3334,1.3494,1.3497,1.35,0,0,0,0,0,0,1.3221,1.3229,1.3297,1.3263,1.3271,1.3271,1.3292,1.3291,1.3303,1.3306,1.3305,1.3294,1.3312,1.3318,1.3365,1.3399,1.3334,1.3337,1.3491,1.3495,1.3498,1.3551,0,0,0,0,0,0,1.3218,1.3229,1.3253,1.3264,1.3273,1.3339,1.3294,1.3293,1.3308,1.3304,1.3318,1.3318,1.331,1.3361,1.3369,1.3402,1.334,1.3488,1.3493,1.3497,1.3546,1.3555,1.3564,0,0,0,0,0,1.3215,1.3266,1.3254,1.3263,1.3303,1.3341,1.3346,1.3337,1.3311,1.3336,1.3338,1.3317,1.3394,1.3366,1.3375,1.341,1.3486,1.3492,1.3497,1.3542,1.3554,1.3564,0,0,0,0,0,0,1.3259,1.3267,1.3254,1.3311,1.3326,1.3335,1.3365,1.3349,1.3372,1.3366,1.3354,1.3357,1.3408,1.3413,1.3382,1.3472,1.3436,1.3443,1.3467,1.3478,1.3487,1.3485,1.3342,0,0,0,0,0,1.3275,1.3305,1.3311,1.336,1.3368,1.3365,1.3381,1.3373,1.3388,1.3394,1.3399,1.3414,1.3442,1.346,1.3485,1.3546,1.3549,1.3575,1.3584,1.3591,1.3598,1.3631,1.3643,1.3517,1.3517,1.3517,0,0,1.3309,1.3317,1.3337,1.3369,1.3379,1.3411,1.3371,1.3406,1.3429,1.3399,1.3445,1.3449,1.3465,1.352,1.3544,1.3526,1.3633,1.3598,1.3604,1.3606,1.3638,1.365,1.366,1.3521,1.352,1.3519,0,0,1.3387,1.3396,1.3438,1.345,1.3466,1.3464,1.3474,1.3486,1.3488,1.3533,1.3511,1.3539,1.3586,1.3599,1.3611,1.3694,1.3677,1.3703,1.375,1.3782,1.3792,1.3801,1.3831,1.3842,1.3709,1.371,1.371,0,1.3427,1.3473,1.3462,1.3499,1.3514,1.3488,1.3531,1.3542,1.3566,1.3577,1.3556,1.3616,1.3625,1.3682,1.3703,1.3713,1.3725,1.3702,1.3792,1.38,1.3808,1.3837,1.3849,1.3713,1.3712,1.3712,1.3712,0,1.3522,1.3555,1.3587,1.3611,1.363,1.3669,1.3664,1.3684,1.3674,1.3674,1.3721,1.3731,1.3758,1.3771,1.3761,1.3827,1.3816,1.3794,1.3757,1.3824,1.3851,1.3861,1.3717,1.3716,1.3715,1.3714,0,0,1.3629,1.3647,1.3659,1.367,1.3686,1.3711,1.3749,1.3776,1.3794,1.3811,1.3844,1.3884,1.3864,1.3878,1.387,1.3898,1.3964,1.3872,1.3873,1.389,1.4039,1.4056,1.4069,1.3952,1.3954,1.3956,1.4038,0,1.3708,1.3775,1.3766,1.3831,1.3861,1.3837,1.3871,1.3884,1.3885,1.3911,1.3912,1.3942,1.3912,1.3921,1.3948,1.3951,1.3994,1.3944,1.3983,1.3984,1.398,1.4083,1.4101,1.4178,1.4048,1.405,1.4051,0,1.3809,1.3831,1.3898,1.391,1.3923,1.3953,1.3977,1.4002,1.4017,1.4016,1.4032,1.4019,1.4057,1.4019,1.4073,1.4039,1.4054,1.4058,1.4061,1.4065,1.4022,1.409,1.4202,1.4214,1.4067,1.4066,1.4065,0,1.3882,1.3927,1.3974,1.3984,1.3998,1.4021,1.4028,1.4041,1.4057,1.4078,1.4089,1.4114,1.4128,1.4148,1.4142,1.4114,1.4197,1.4158,1.4198,1.4198,1.4217,1.4216,1.4333,1.4225,1.4225,1.4225,1.4224,0,1.3972,1.4014,1.4007,1.4035,1.4082,1.4071,1.4118,1.4122,1.4134,1.4163,1.4144,1.4172,1.4161,1.4188,1.4183,1.4229,1.4235,1.4236,1.4234,1.4238,1.4238,1.4248,1.4243,1.4228,1.4227,1.4226,1.4226,0,1.4061,1.4057,1.4107,1.4117,1.412,1.4155,1.4163,1.419,1.419,1.4227,1.4235,1.4234,1.4266,1.4261,1.4295,1.4292,1.4349,1.4341,1.4344,1.4343,1.4383,1.4379,1.4512,1.4529,1.4409,1.441,1.4411,0,1.4119,1.4151,1.4165,1.4183,1.4192,1.4221,1.4238,1.4229,1.4247,1.4267,1.4292,1.4321,1.4344,1.4395,1.4398,1.4424,1.4417,1.4461,1.4421,1.4424,1.4418,1.4417,1.4421,1.447,1.4471,1.4472,1.4473,0,1.4222,1.4219,1.4245,1.427,1.4291,1.431,1.4328,1.4344,1.4336,1.4358,1.4389,1.4407,1.4442,1.4472,1.4497,1.4504,1.4488,1.4486,1.4496,1.4501,1.4502,1.4503,1.4367,1.4483,1.4482,1.4481,1.4481,1.448,1.4299,1.4326,1.434,1.4369,1.4381,1.4398,1.4424,1.4427,1.4453,1.4482,1.4474,1.451,1.4525,1.4556,1.4566,1.4594,1.4578,1.4593,1.4597,1.4601,1.4607,1.4497,1.4599,1.4598,1.4598,1.4598,1.4598,0,1.4402,1.441,1.4437,1.4462,1.4485,1.4467,1.4485,1.4506,1.4538,1.4552,1.4576,1.4612,1.4641,1.4646,1.4673,1.4695,1.4688,1.4702,1.4701,1.4703,1.4619,1.4608,1.4707,1.4707,1.4707,1.4707,1.4707,1.4707,1.4459,1.4505,1.4503,1.4555,1.4563,1.4598,1.461,1.4626,1.4637,1.4679,1.4703,1.4706,1.4717,1.4745,1.477,1.4771,1.4782,1.48,1.4798,1.472,1.4709,1.4699,1.4688,1.4802,1.4803,1.488,1.488,1.4881]}]]